Weather History for Morrisville, VT

Change the Weather History Date:

Tuesday, April 15, 2014

  Actual Average Record
Temperature  
Mean Temperature 44 °F 42 °F  
Max Temperature 63 °F 54 °F 80 °F (2003)
Min Temperature 24 °F 30 °F 18 °F (1997)
Degree Days  
Heating Degree Days 21 23  
Month to date heating degree days 367 399  
Since 1 July heating degree days 7873 7486  
Cooling Degree Days 0 0  
Month to date cooling degree days 0 0  
Year to date cooling degree days 0 0  
Moisture  
Dew Point 39 °F    
Average Humidity 83    
Maximum Humidity 93    
Minimum Humidity 72    
Precipitation  
Precipitation 0.84 in 0.08 in 1.09 in (2007)
Month to date precipitation 1.85 1.25  
Year to date precipitation 9.12 7.20  
Sea Level Pressure  
Sea Level Pressure 29.68 in    
Wind  
Wind Speed 8 mph (North)    
Max Wind Speed 22 mph    
Max Gust Speed 32 mph    
Visibility 4 miles    
Events Rain , Snow    
T = Trace of Precipitation, MM = Missing Value Source: NWS Daily Summary

Daily Weather History Graph

Daily Weather History Graph

Search for Another Location

Airport:

Trip Planner

Search our weather history database for the weather conditions in past years. The results will help you decide how hot, cold, wet, or windy it might be!

Date:

Astronomy

Apr. 15, 2014 Rise Set
Actual Time 6:06 AM EDT 7:35 PM EDT
Civil Twilight 5:36 AM EDT 8:05 PM EDT
Nautical Twilight 4:59 AM EDT 8:42 PM EDT
Astronomical Twilight 4:20 AM EDT 9:22 PM EDT
Moon 8:14 PM EDT (4/15) 6:12 AM EDT (4/15)
Length of Visible Light 14h 29m
Length of Day
13h 28m
Full, 100% of the Moon is Illuminated
Apr 15
Full
Apr 22
Last Quarter
Apr 29
New
May 6
First Quarter
May 14
Full

Hourly Weather History & Observations

Time (EDT) Temp. Windchill Dew Point Humidity Pressure Visibility Wind Dir Wind Speed Gust Speed Precip Events Conditions
12:54 AM 55.0 °F - 52.0 °F 89% 29.73 in 10.0 mi Calm Calm - 0.00 in   Overcast
1:54 AM 57.0 °F - 52.0 °F 83% 29.72 in 10.0 mi Variable 3.5 mph - 0.00 in Rain Light Rain
2:54 AM 55.0 °F - 50.0 °F 83% 29.70 in 10.0 mi Calm Calm - 0.00 in Rain Light Rain
3:54 AM 55.0 °F - 50.0 °F 83% 29.70 in 10.0 mi SW 3.5 mph - 0.00 in Rain Light Rain
4:54 AM 55.9 °F - 50.0 °F 80% 29.68 in 10.0 mi South 4.6 mph - 0.00 in   Overcast
5:54 AM 55.0 °F - 51.1 °F 86% 29.67 in 10.0 mi SSW 3.5 mph - 0.01 in Rain Light Rain
6:54 AM 54.0 °F - 52.0 °F 93% 29.66 in 10.0 mi Calm Calm - 0.01 in Rain Light Rain
8:54 AM 62.1 °F - 54.0 °F 75% 29.57 in 10.0 mi South 16.1 mph 27.6 mph N/A   Overcast
9:54 AM 61.0 °F - 55.0 °F 81% 29.55 in 6.0 mi South 16.1 mph 26.5 mph 0.00 in Rain Light Rain
10:54 AM 63.0 °F - 55.9 °F 78% 29.52 in 10.0 mi South 12.7 mph 21.9 mph 0.01 in Rain Light Rain
11:54 AM 62.1 °F - 55.9 °F 80% 29.50 in 8.0 mi South 11.5 mph 21.9 mph 0.03 in Rain Light Rain
12:54 PM 62.1 °F - 55.9 °F 80% 29.47 in 8.0 mi South 9.2 mph 17.3 mph 0.03 in Rain Light Rain
1:54 PM 61.0 °F - 55.9 °F 83% 29.43 in 5.0 mi South 10.4 mph 19.6 mph 0.07 in Rain Light Rain
2:08 PM 61.0 °F - 57.0 °F 87% 29.41 in 4.0 mi South 10.4 mph 18.4 mph 0.03 in Rain Rain
2:38 PM 57.9 °F - 54.0 °F 87% 29.46 in 1.8 mi WNW 18.4 mph 28.8 mph 0.11 in Rain Rain
2:43 PM 54.0 °F - 48.9 °F 83% 29.47 in 0.8 mi WNW 17.3 mph 28.8 mph 0.21 in Rain Heavy Rain
2:50 PM 51.8 °F - 48.2 °F 88% 29.48 in 1.2 mi NNW 11.5 mph 27.6 mph 0.23 in Rain Rain
2:54 PM 51.1 °F - 46.0 °F 83% 29.49 in 3.0 mi North 11.5 mph 18.4 mph 0.23 in Rain Light Rain
3:18 PM 48.9 °F - 45.0 °F 86% 29.50 in 5.0 mi NNE 8.1 mph - 0.04 in Rain Light Rain
3:54 PM 46.9 °F - 44.1 °F 90% 29.54 in 4.0 mi North 10.4 mph - 0.11 in Rain Rain
4:28 PM 46.0 °F 41.0 °F 43.0 °F 89% 29.53 in 8.0 mi North 10.4 mph - 0.06 in Rain Light Rain
4:54 PM 45.0 °F 38.9 °F 42.1 °F 90% 29.56 in 7.0 mi NNW 12.7 mph 20.7 mph 0.08 in Rain Light Rain
5:32 PM 42.1 °F 34.9 °F 39.0 °F 89% 29.60 in 2.5 mi NNW 13.8 mph 23.0 mph 0.04 in Rain Rain
5:41 PM 42.1 °F 35.7 °F 37.9 °F 85% 29.60 in 3.0 mi NNW 11.5 mph 21.9 mph 0.05 in Rain Light Rain
5:49 PM 41.0 °F 34.7 °F 37.4 °F 87% 29.61 in 3.0 mi NNW 10.4 mph - 0.06 in Rain Light Rain
5:54 PM 41.0 °F 34.7 °F 37.9 °F 89% 29.63 in 2.5 mi NNW 10.4 mph - 0.07 in Rain Light Rain
6:11 PM 39.9 °F 33.9 °F 37.0 °F 89% 29.62 in 3.0 mi North 9.2 mph 19.6 mph 0.01 in Rain Rain
6:28 PM 39.0 °F 32.3 °F 36.0 °F 89% 29.63 in 6.0 mi North 10.4 mph - 0.02 in Rain Light Rain
6:54 PM 37.0 °F 31.0 °F 34.0 °F 89% 29.67 in 5.0 mi NNW 8.1 mph - 0.04 in Rain Rain
7:00 PM 36.0 °F 28.0 °F 33.1 °F 89% 29.66 in 4.0 mi NNW 11.5 mph - 0.00 in Rain Rain
7:54 PM 34.0 °F 27.2 °F 30.9 °F 89% 29.74 in 5.0 mi North 8.1 mph - 0.04 in Snow Light Snow
8:31 PM 33.1 °F 26.9 °F 30.0 °F 89% 29.75 in 2.5 mi North 6.9 mph - 0.01 in Snow Light Snow
8:44 PM 32.0 °F 27.5 °F 30.0 °F 92% 29.77 in 1.8 mi North 4.6 mph - 0.02 in Snow Light Snow
8:50 PM 32.0 °F 26.4 °F 30.2 °F 93% 29.78 in 2.0 mi NNE 5.8 mph - 0.02 in Snow Light Snow
8:54 PM 32.0 °F 25.6 °F 30.0 °F 92% 29.79 in 2.0 mi NNE 6.9 mph - 0.02 in Snow Light Snow
9:15 PM 30.9 °F 22.8 °F 28.9 °F 92% 29.79 in 1.2 mi NNE 9.2 mph - 0.01 in Snow Light Snow
9:22 PM 30.9 °F 22.8 °F 28.9 °F 92% 29.79 in 1.2 mi North 9.2 mph - 0.01 in Snow Light Snow
9:54 PM 28.9 °F 19.8 °F 27.0 °F 92% 29.85 in 1.5 mi NNE 10.4 mph - 0.02 in Snow Light Snow
10:12 PM 28.0 °F 17.5 °F 25.0 °F 88% 29.82 in 1.0 mi North 12.7 mph - 0.01 in Snow Light Snow
10:26 PM 28.0 °F 18.6 °F 25.0 °F 88% 29.83 in 1.8 mi NNE 10.4 mph - 0.01 in Snow Light Snow
10:28 PM 28.0 °F 18.6 °F 25.0 °F 88% 29.83 in 2.0 mi North 10.4 mph - 0.01 in Snow Light Snow
10:40 PM 28.0 °F 19.3 °F 24.1 °F 85% 29.85 in 3.0 mi North 9.2 mph - 0.01 in Snow Light Snow
10:54 PM 28.0 °F 19.3 °F 24.1 °F 85% 29.87 in 2.5 mi North 9.2 mph - 0.01 in Snow Light Snow
11:00 PM 27.0 °F 19.5 °F 24.1 °F 89% 29.86 in 2.0 mi North 6.9 mph - 0.00 in Snow Light Snow
11:10 PM 27.0 °F 21.6 °F 24.1 °F 89% 29.87 in 1.8 mi North 4.6 mph - 0.00 in Snow Light Snow
11:20 PM 26.1 °F 16.8 °F 23.0 °F 88% 29.85 in 1.2 mi NNE 9.2 mph - 0.00 in Snow Light Snow
11:23 PM 26.1 °F 16.8 °F 23.0 °F 88% 29.85 in 1.0 mi NNE 9.2 mph - 0.01 in Snow Light Snow
11:31 PM 26.1 °F 16.8 °F 23.0 °F 88% 29.88 in 1.0 mi North 9.2 mph - 0.01 in Snow Light Snow
11:39 PM 26.1 °F 18.4 °F 23.0 °F 88% 29.89 in 1.0 mi NNE 6.9 mph - 0.01 in Snow Light Snow
11:54 PM 25.0 °F 17.1 °F 23.0 °F 92% 29.92 in 0.8 mi North 6.9 mph - 0.02 in Snow Light Snow